Location: Newark
(43.9494°N, 6.8108°E)
Time: 12:31:05
(UTC+00:00)

Envisat - Pass Details

Date: 25 September 2019
Orbit: 764 x 766 km, 98.1° (Epoch: 18 October)

Event Time Altitude Azimuth Distance (km) Brightness Sun altitude
Rises 17:56:26 0° 176° (S) 3,218 6.1 -6.4°
Reaches altitude 10° 17:58:46 10° 180° (S) 2,296 5.4 -6.8°
Maximum altitude 18:03:45 59° 259° (W) 887 3.7 -7.7°
Drops below altitude 10° 18:08:47 10° 339° (NNW) 2,312 5.9 -8.6°
Sets 18:11:09 0° 344° (NNW) 3,243 6.6 -9.0°
